Change the Weather History Date:

Friday, May 30, 2014

  Actual Average Record
Temperature  
Mean Temperature 64 °F -  
Max Temperature 78 °F 74 °F 96 °F (2006)
Min Temperature 53 °F 49 °F 29 °F (1961)
Degree Days  
Heating Degree Days 1    
Growing Degree Days 14 (Base 50)    
Moisture  
Dew Point 52 °F    
Average Humidity 78    
Maximum Humidity 93    
Minimum Humidity 44    
Precipitation  
Precipitation 0.00 in - - ()
Sea Level Pressure  
Sea Level Pressure 30.17 in    
Wind  
Wind Speed 3 mph (East)    
Max Wind Speed 15 mph    
Max Gust Speed 22 mph    
Visibility 6 miles    
Events Fog , Rain    
Averages and records for this station are not official NWS values.
T = Trace of Precipitation, MM = Missing Value Source: NWS Daily Summary

Daily Weather History Graph

Daily Weather History Graph

Search for Another Location

Airport or City:

Trip Planner

Search our weather history database for the weather conditions in past years. The results will help you decide how hot, cold, wet, or windy it might be!

Date:

Astronomy

May. 30, 2014 Rise Set
Actual Time 5:36 AM EDT 8:40 PM EDT
Civil Twilight 5:03 AM EDT 9:14 PM EDT
Nautical Twilight 4:19 AM EDT 9:57 PM EDT
Astronomical Twilight 3:28 AM EDT 10:49 PM EDT
Moon 7:20 AM EDT (5/30) 10:14 PM EDT (5/30)
Length of Visible Light 16h 11m
Length of Day
15h 03m
Waxing Crescent, 4% of the Moon is Illuminated
May 30
Waxing Crescent
Jun 5
First Quarter
Jun 13
Full
Jun 19
Last Quarter
Jun 27
New

Hourly Weather History & Observations

Time (EDT) Temp. Dew Point Humidity Pressure Visibility Wind Dir Wind Speed Gust Speed Precip Events Conditions
12:54 AM 57.0 °F 52.0 °F 83% 30.16 in 9.0 mi Calm Calm - N/A   Clear
1:54 AM 55.0 °F 51.1 °F 86% 30.16 in 7.0 mi Calm Calm - N/A   Clear
2:32 AM 54.0 °F 50.0 °F 86% 30.15 in 6.0 mi Calm Calm - N/A   Partly Cloudy
2:54 AM 54.0 °F 50.0 °F 86% 30.17 in 5.0 mi Calm Calm - N/A   Scattered Clouds
3:02 AM 54.0 °F 50.0 °F 86% 30.15 in 6.0 mi Calm Calm - N/A   Mostly Cloudy
3:47 AM 55.0 °F 51.1 °F 86% 30.15 in 1.8 mi Calm Calm - N/A   Overcast
3:54 AM 54.0 °F 51.1 °F 90% 30.17 in 1.0 mi Calm Calm - N/A   Overcast
4:01 AM 54.0 °F 51.1 °F 90% 30.14 in 0.5 mi Calm Calm - N/A Fog Fog
4:16 AM 53.1 °F 51.1 °F 93% 30.15 in 2.5 mi ESE 3.5 mph - N/A   Overcast
4:23 AM 53.1 °F 50.0 °F 89% 30.15 in 8.0 mi SE 3.5 mph - N/A   Overcast
5:54 AM 53.1 °F 50.0 °F 89% 30.18 in 6.0 mi SE 4.6 mph - N/A   Overcast
6:14 AM 53.1 °F 50.0 °F 89% 30.17 in 2.5 mi ESE 3.5 mph - N/A   Overcast
6:23 AM 53.1 °F 50.0 °F 89% 30.17 in 4.0 mi ESE 4.6 mph - N/A   Overcast
6:30 AM 53.1 °F 50.0 °F 89% 30.17 in 1.8 mi SE 5.8 mph - N/A   Overcast
6:44 AM 53.1 °F 50.0 °F 89% 30.18 in 0.5 mi ESE 4.6 mph - N/A Fog Fog
6:54 AM 53.1 °F 51.1 °F 93% 30.21 in 0.5 mi ESE 4.6 mph - N/A Fog Fog
7:09 AM 53.1 °F 51.1 °F 93% 30.19 in 1.8 mi Variable 3.5 mph - N/A   Overcast
7:29 AM 53.1 °F 51.1 °F 93% 30.19 in 2.5 mi South 3.5 mph - N/A   Overcast
7:45 AM 54.0 °F 51.1 °F 90% 30.19 in 4.0 mi Calm Calm - N/A   Overcast
8:10 AM 55.9 °F 52.0 °F 87% 30.19 in 9.0 mi Calm Calm - N/A   Scattered Clouds
8:54 AM 61.0 °F 53.1 °F 75% 30.21 in 10.0 mi Calm Calm - N/A   Clear
9:54 AM 66.9 °F 52.0 °F 59% 30.20 in 10.0 mi NW 9.2 mph - N/A   Clear
10:54 AM 71.1 °F 54.0 °F 55% 30.19 in 10.0 mi NNW 9.2 mph - N/A   Clear
11:54 AM 73.0 °F 54.0 °F 51% 30.18 in 10.0 mi North 11.5 mph - N/A   Clear
12:54 PM 75.0 °F 53.1 °F 46% 30.17 in 10.0 mi NNW 11.5 mph 21.9 mph N/A   Partly Cloudy
2:54 PM 75.0 °F 52.0 °F 44% 30.16 in 10.0 mi NNW 12.7 mph - N/A   Overcast
3:54 PM 73.9 °F 54.0 °F 50% 30.16 in 10.0 mi NNW 15.0 mph 20.7 mph N/A   Overcast
6:54 PM 72.0 °F 54.0 °F 53% 30.15 in 10.0 mi NNW 8.1 mph - N/A   Partly Cloudy
7:54 PM 72.0 °F 53.1 °F 51% 30.15 in 10.0 mi NNW 5.8 mph - 0.00 in Rain Light Rain
8:54 PM 66.0 °F 57.0 °F 73% 30.16 in 10.0 mi Calm Calm - 0.00 in   Mostly Cloudy
9:54 PM 63.0 °F 55.9 °F 78% 30.19 in 10.0 mi Calm Calm - N/A   Clear
10:54 PM 61.0 °F 55.0 °F 81% 30.20 in 10.0 mi SSE 3.5 mph - N/A   Clear
11:54 PM 57.9 °F 53.1 °F 84% 30.22 in 10.0 mi South 3.5 mph - N/A   Clear